[[{"header":{"parameterUnit":"m.s-1","parameterCategory":1,"la1":30.2991,"la2":30.254,"lo1":-89.0895,"lo2":-89.0444,"dy":0.0017,"dx":0.0017,"nx":28,"ny":28,"refTime":"2024-08-05T03:00:00:Z","depth":0,"parameterNumber":2,"parameterNumberName":"U-component_of_WINDS"},"data":[0,0,0,0,0,0,0,0,0,0,0,0,0,0,0,0,0,0,0,0,0,0,0,0,0,0,0,0,0,0,0,0,0,0,0,0,0,0,0,0,0,0,0,0,0,0,0,0,0,0,0,0,0,0,0,0,0,0,0.3868,0.3869,0,0.3972,0.3974,0.3975,0.3975,0.3973,0.3972,0.3971,0.408,0.4084,0.4089,0,0,0,0,0,0,0,0,0,0,0,0,0,0.3673,0.3677,0.3868,0.3869,0.3871,0.3972,0.3974,0.3975,0.3975,0.3973,0.3971,0.397,0.4079,0.4084,0.4089,0,0,0,0,0,0,0,0,0,0,0,0,0,0.3766,0.3678,0.3868,0.3883,0.3885,0.3972,0.3974,0.3975,0.3975,0.3973,0.3971,0.3969,0.4077,0.4083,0.409,0.4169,0,0,0.4109,0.4112,0,0,0,0,0,0,0,0,0.376,0.3773,0.3879,0.3882,0.3885,0.3958,0.3945,0.4041,0.3976,0.3941,0.397,0.3968,0.4042,0.4051,0.4075,0.4175,0.4179,0.4109,0.4113,0.4116,0.4118,0,0,0,0,0,0,0,0.3754,0.3768,0.3909,0.3881,0.3884,0.3886,0.3896,0.3963,0.4002,0.3944,0.3944,0.3956,0.4043,0.4069,0.4077,0.4181,0.4109,0.4115,0.4119,0.4121,0.4354,0.4357,0,0,0,0,0,0,0.3744,0.3763,0.3906,0.3912,0.3816,0.3891,0.3903,0.3937,0.4001,0.4009,0.3958,0.3956,0.4059,0.407,0.4081,0.4181,0.4116,0.4122,0.4125,0.4352,0.4355,0.4358,0,0,0,0,0,0,0.374,0.3757,0.3902,0.3838,0.3856,0.3896,0.3934,0.394,0.3966,0.4011,0.4019,0.3977,0.4058,0.4072,0.4148,0.4185,0.4125,0.413,0.4349,0.4353,0.4356,0.4379,0,0,0,0,0,0,0.3734,0.3755,0.3785,0.3838,0.386,0.3966,0.3936,0.3943,0.3976,0.3975,0.4031,0.4039,0.4057,0.4139,0.4154,0.4192,0.4135,0.4346,0.4351,0.4355,0.4375,0.4383,0.439,0,0,0,0,0,0.3727,0.3787,0.3786,0.3803,0.3897,0.3968,0.398,0.3999,0.3979,0.401,0.404,0.4037,0.4178,0.4146,0.4164,0.4204,0.4344,0.435,0.4355,0.4372,0.4382,0.439,0,0,0,0,0,0,0.3737,0.3794,0.3794,0.3873,0.3915,0.3967,0.4007,0.4008,0.4058,0.4054,0.4077,0.409,0.4166,0.4192,0.4156,0.4286,0.4259,0.4268,0.4266,0.4275,0.4282,0.4275,0.414,0,0,0,0,0,0.3748,0.3799,0.3847,0.3912,0.3933,0.3967,0.3998,0.4009,0.4054,0.4072,0.4107,0.4153,0.4207,0.4243,0.4295,0.4379,0.4393,0.4416,0.4423,0.4429,0.4437,0.4486,0.4497,0.4376,0.4376,0.4375,0,0,0.3772,0.381,0.3841,0.3915,0.3949,0.4003,0.3982,0.4039,0.408,0.4081,0.4155,0.4183,0.4235,0.4315,0.4353,0.434,0.4474,0.4436,0.444,0.4445,0.4493,0.4504,0.4514,0.4379,0.4379,0.4378,0,0,0.3844,0.3877,0.3935,0.397,0.4022,0.4044,0.4058,0.4111,0.4129,0.4203,0.4206,0.4256,0.4349,0.4386,0.4418,0.4506,0.4506,0.4522,0.456,0.4608,0.4617,0.4626,0.4659,0.4671,0.453,0.453,0.453,0,0.3867,0.3947,0.3966,0.4024,0.4057,0.4061,0.4122,0.4155,0.4222,0.4246,0.4231,0.4349,0.4384,0.4475,0.4497,0.4521,0.454,0.4516,0.4614,0.4623,0.4631,0.4663,0.4676,0.4532,0.4532,0.4531,0.4531,0,0.3975,0.403,0.4072,0.4136,0.4174,0.4234,0.4263,0.4299,0.4308,0.4332,0.4409,0.4451,0.4514,0.4536,0.4545,0.4629,0.462,0.4609,0.4582,0.4645,0.4675,0.4687,0.4534,0.4534,0.4533,0.4533,0,0,0.4055,0.4129,0.4144,0.4174,0.4233,0.4277,0.4338,0.4398,0.443,0.4477,0.4529,0.4609,0.46,0.4636,0.4649,0.469,0.476,0.4675,0.4677,0.4691,0.4858,0.4866,0.488,0.476,0.4763,0.4764,0.4854,0,0.4133,0.4239,0.4259,0.4352,0.4405,0.441,0.4463,0.4506,0.4531,0.4581,0.4608,0.4665,0.4648,0.467,0.4711,0.4743,0.4794,0.4736,0.4811,0.4814,0.4799,0.4895,0.4904,0.4986,0.4866,0.4868,0.4869,0,0.4239,0.4288,0.4387,0.444,0.4463,0.451,0.4568,0.4615,0.4665,0.468,0.4721,0.473,0.4795,0.4764,0.4856,0.4816,0.4848,0.4868,0.4872,0.4881,0.4846,0.4908,0.5013,0.5026,0.4888,0.4886,0.4885,0,0.4289,0.438,0.4452,0.4477,0.4541,0.4574,0.4602,0.465,0.4686,0.4737,0.4761,0.4819,0.4851,0.4897,0.4923,0.4898,0.5013,0.4984,0.5029,0.5029,0.5053,0.5052,0.5166,0.5072,0.5072,0.5072,0.5071,0,0.4376,0.4436,0.4475,0.4519,0.4588,0.461,0.4678,0.4706,0.4749,0.48,0.4808,0.4856,0.4886,0.4939,0.4959,0.5033,0.5047,0.5063,0.5068,0.5063,0.5061,0.5085,0.508,0.5075,0.5074,0.5074,0.5073,0,0.4444,0.4472,0.455,0.4604,0.462,0.4668,0.4715,0.4759,0.4784,0.4849,0.4865,0.4905,0.4968,0.4998,0.5076,0.509,0.5174,0.5174,0.5157,0.5159,0.5203,0.5199,0.5338,0.5358,0.5249,0.525,0.5251,0,0.4497,0.4544,0.4603,0.4638,0.4667,0.4722,0.4759,0.4783,0.4822,0.4883,0.492,0.4983,0.5035,0.5135,0.5172,0.5233,0.5236,0.528,0.5245,0.5239,0.5238,0.5236,0.5241,0.5287,0.5288,0.5289,0.5289,0,0.459,0.4602,0.4654,0.4712,0.4756,0.4802,0.4848,0.4877,0.4909,0.4952,0.5016,0.5056,0.5136,0.52,0.5263,0.5294,0.5298,0.53,0.5314,0.531,0.5298,0.5307,0.5176,0.5297,0.5296,0.5296,0.5295,0.5295,0.4654,0.4696,0.4745,0.4804,0.4841,0.4884,0.4929,0.496,0.5013,0.508,0.5092,0.516,0.5211,0.5296,0.533,0.5385,0.5375,0.5395,0.54,0.5405,0.5408,0.5289,0.5397,0.5397,0.5396,0.5396,0.5396,0,0.4748,0.478,0.4834,0.4898,0.4945,0.4944,0.4995,0.5035,0.5095,0.5141,0.5192,0.5268,0.5329,0.5372,0.5435,0.5472,0.5475,0.5488,0.5486,0.5493,0.5413,0.5395,0.5484,0.5484,0.5484,0.5484,0.5484,0.5484,0.4803,0.4876,0.4894,0.4986,0.5018,0.5085,0.5115,0.5156,0.5193,0.5276,0.5328,0.5355,0.5401,0.5468,0.5525,0.5536,0.556,0.5573,0.5584,0.5508,0.5499,0.549,0.5473,0.5577,0.5577,0.566,0.5661,0.5661]},{"header":{"parameterUnit":"m.s-1","parameterCategory":1,"la1":30.2991,"la2":30.254,"lo1":-89.0895,"lo2":-89.0444,"dy":0.0017,"dx":0.0017,"nx":28,"ny":28,"refTime":"2024-08-05T03:00:00:Z","depth":0,"parameterNumber":3,"parameterNumberName":"V-component_of_WINDS"},"data":[0,0,0,0,0,0,0,0,0,0,0,0,0,0,0,0,0,0,0,0,0,0,0,0,0,0,0,0,0,0,0,0,0,0,0,0,0,0,0,0,0,0,0,0,0,0,0,0,0,0,0,0,0,0,0,0,0,0,-2.6752,-2.6752,0,-2.6777,-2.6777,-2.6778,-2.684,-2.6841,-2.6843,-2.6844,-2.6866,-2.6865,-2.6864,0,0,0,0,0,0,0,0,0,0,0,0,0,-2.6756,-2.6756,-2.6752,-2.6752,-2.6752,-2.6777,-2.6777,-2.6778,-2.684,-2.6841,-2.6843,-2.6845,-2.6866,-2.6865,-2.6864,0,0,0,0,0,0,0,0,0,0,0,0,0,-2.6765,-2.6755,-2.6752,-2.6787,-2.679,-2.6777,-2.6777,-2.6778,-2.6839,-2.6841,-2.6843,-2.6845,-2.6866,-2.6865,-2.6864,-2.6818,0,0,-2.6861,-2.6861,0,0,0,0,0,0,0,0,-2.6764,-2.6765,-2.6781,-2.6784,-2.6788,-2.6808,-2.6787,-2.6791,-2.6839,-2.682,-2.6844,-2.6846,-2.6844,-2.6845,-2.6846,-2.6819,-2.682,-2.6861,-2.686,-2.686,-2.686,0,0,0,0,0,0,0,-2.6763,-2.6764,-2.6762,-2.6781,-2.6785,-2.68,-2.6804,-2.6788,-2.6821,-2.6822,-2.6827,-2.6829,-2.6847,-2.6846,-2.6846,-2.682,-2.6861,-2.686,-2.686,-2.6859,-2.6762,-2.676,0,0,0,0,0,0,-2.6758,-2.6763,-2.6761,-2.6762,-2.6781,-2.6799,-2.6803,-2.6799,-2.6821,-2.6827,-2.6828,-2.6832,-2.6847,-2.6848,-2.6847,-2.6798,-2.686,-2.6859,-2.6858,-2.6764,-2.6761,-2.6759,0,0,0,0,0,0,-2.6758,-2.6757,-2.676,-2.6764,-2.6766,-2.6797,-2.6792,-2.6799,-2.6799,-2.6825,-2.6831,-2.6821,-2.6849,-2.6849,-2.6826,-2.6799,-2.6859,-2.6858,-2.6766,-2.6763,-2.676,-2.6697,0,0,0,0,0,0,-2.6758,-2.6757,-2.674,-2.6763,-2.6765,-2.6738,-2.679,-2.6798,-2.6797,-2.6803,-2.6821,-2.6826,-2.685,-2.6827,-2.6825,-2.6799,-2.6857,-2.6769,-2.6765,-2.6761,-2.6701,-2.6692,-2.6684,0,0,0,0,0,-2.6758,-2.6719,-2.6739,-2.6738,-2.6745,-2.6737,-2.6738,-2.6768,-2.6795,-2.6778,-2.6796,-2.6825,-2.6803,-2.6824,-2.6823,-2.6796,-2.677,-2.6766,-2.6761,-2.6705,-2.6694,-2.6684,0,0,0,0,0,0,-2.6689,-2.6723,-2.6745,-2.6713,-2.6722,-2.6747,-2.6727,-2.6754,-2.6754,-2.676,-2.6796,-2.6799,-2.6772,-2.6782,-2.6805,-2.6755,-2.6792,-2.6786,-2.6749,-2.6739,-2.673,-2.6729,-2.6856,0,0,0,0,0,-2.6671,-2.6663,-2.6692,-2.6661,-2.6664,-2.6695,-2.6692,-2.6715,-2.6725,-2.6729,-2.6745,-2.6753,-2.6748,-2.6744,-2.674,-2.6703,-2.6709,-2.6684,-2.6675,-2.6668,-2.6663,-2.6647,-2.6637,-2.6744,-2.6744,-2.6744,0,0,-2.6632,-2.6649,-2.6641,-2.6648,-2.6657,-2.6648,-2.6697,-2.6684,-2.6678,-2.6726,-2.6707,-2.6719,-2.6731,-2.6701,-2.6689,-2.6708,-2.6635,-2.6662,-2.6656,-2.6655,-2.6642,-2.6631,-2.6622,-2.6741,-2.6742,-2.6742,0,0,-2.6557,-2.6568,-2.6545,-2.6555,-2.657,-2.6591,-2.6586,-2.6608,-2.6619,-2.6601,-2.6638,-2.663,-2.662,-2.6628,-2.6631,-2.6562,-2.659,-2.656,-2.6515,-2.6499,-2.649,-2.6483,-2.6461,-2.6452,-2.6555,-2.6555,-2.6555,0,-2.6506,-2.6494,-2.6529,-2.6516,-2.6518,-2.6565,-2.6542,-2.6549,-2.6561,-2.6562,-2.6584,-2.6575,-2.6586,-2.6561,-2.6545,-2.6544,-2.654,-2.6558,-2.6489,-2.6482,-2.6476,-2.6455,-2.6446,-2.6552,-2.6552,-2.6552,-2.6553,0,-2.6433,-2.6424,-2.6404,-2.6418,-2.6418,-2.6399,-2.6432,-2.6428,-2.6452,-2.6471,-2.6453,-2.6468,-2.647,-2.6465,-2.6487,-2.6444,-2.6456,-2.6482,-2.6521,-2.6461,-2.6443,-2.6435,-2.6546,-2.6548,-2.6549,-2.655,0,0,-2.6313,-2.635,-2.6342,-2.635,-2.6372,-2.6366,-2.6351,-2.6355,-2.6352,-2.6359,-2.6348,-2.6341,-2.6367,-2.637,-2.6393,-2.6379,-2.6327,-2.6408,-2.6409,-2.6394,-2.6284,-2.6265,-2.6255,-2.6346,-2.6345,-2.6344,-2.6284,0,-2.6244,-2.6221,-2.6254,-2.6224,-2.6218,-2.6264,-2.6251,-2.6263,-2.628,-2.6278,-2.6297,-2.6292,-2.6326,-2.6329,-2.6317,-2.6336,-2.6306,-2.6341,-2.6337,-2.6336,-2.6334,-2.6245,-2.6224,-2.6167,-2.6277,-2.6276,-2.6275,0,-2.616,-2.6167,-2.6137,-2.6165,-2.6163,-2.6151,-2.616,-2.6156,-2.6172,-2.6186,-2.6191,-2.622,-2.6208,-2.6245,-2.6229,-2.6252,-2.6252,-2.6262,-2.626,-2.6262,-2.6302,-2.6246,-2.6149,-2.6141,-2.6263,-2.6264,-2.6265,0,-2.6078,-2.608,-2.6064,-2.6069,-2.61,-2.6091,-2.6103,-2.6121,-2.6123,-2.613,-2.6132,-2.6136,-2.6139,-2.6142,-2.6172,-2.6195,-2.6153,-2.6191,-2.6165,-2.6165,-2.6154,-2.6155,-2.6058,-2.6152,-2.6152,-2.6152,-2.6153,0,-2.5999,-2.5979,-2.6028,-2.6018,-2.5998,-2.6037,-2.6016,-2.6032,-2.6048,-2.6042,-2.6081,-2.6074,-2.6113,-2.6111,-2.6134,-2.6119,-2.6119,-2.6131,-2.6138,-2.6129,-2.6127,-2.613,-2.6135,-2.615,-2.6151,-2.6151,-2.6151,0,-2.5904,-2.5936,-2.5922,-2.5954,-2.5961,-2.5945,-2.5973,-2.5965,-2.5987,-2.5979,-2.5979,-2.6013,-2.6013,-2.6043,-2.6048,-2.6064,-2.6039,-2.6052,-2.6035,-2.604,-2.6013,-2.6015,-2.5915,-2.5905,-2.6004,-2.6003,-2.6002,0,-2.5852,-2.5839,-2.587,-2.587,-2.5882,-2.588,-2.5884,-2.5921,-2.5923,-2.5942,-2.5932,-2.5936,-2.5941,-2.5939,-2.5963,-2.5968,-2.5983,-2.5947,-2.5983,-2.5976,-2.5985,-2.5986,-2.5986,-2.594,-2.5938,-2.5937,-2.5936,0,-2.5756,-2.5774,-2.5778,-2.5788,-2.5792,-2.5801,-2.5813,-2.581,-2.5852,-2.5852,-2.5854,-2.5858,-2.5866,-2.5869,-2.588,-2.5892,-2.5921,-2.5925,-2.592,-2.5911,-2.5902,-2.5909,-2.6016,-2.5927,-2.5928,-2.5929,-2.5929,-2.593,-2.5683,-2.5674,-2.5697,-2.5701,-2.5714,-2.5725,-2.5721,-2.5744,-2.5747,-2.5757,-2.5779,-2.5778,-2.5797,-2.5814,-2.5824,-2.5824,-2.5842,-2.5833,-2.5831,-2.5829,-2.5825,-2.5902,-2.5826,-2.5826,-2.5826,-2.5827,-2.5827,0,-2.5591,-2.5609,-2.5612,-2.5629,-2.5633,-2.5663,-2.5678,-2.5679,-2.5679,-2.5694,-2.57,-2.5703,-2.5708,-2.5734,-2.5742,-2.5737,-2.5752,-2.5738,-2.574,-2.5743,-2.5808,-2.5813,-2.5727,-2.5727,-2.5727,-2.5727,-2.5727,-2.5727,-2.5544,-2.5533,-2.5554,-2.555,-2.5568,-2.5569,-2.5576,-2.5587,-2.56,-2.5603,-2.5608,-2.5626,-2.5647,-2.5657,-2.5663,-2.5671,-2.5673,-2.5656,-2.5668,-2.5728,-2.5738,-2.5747,-2.5752,-2.5655,-2.5655,-2.5603,-2.5603,-2.5603]}]]